Location: Canyon City
(32.5951°N, 116.5278°W)
Time: 01:18:35
(UTC+00:00)

SWIFT - Pass Details

Date: 08 September 2024
Orbit: 490 x 499 km, 20.6° (Epoch: 03 October)

Event Time Altitude Azimuth Distance (km) Brightness Sun altitude
Exits shadow 12:29:55 10° 209° (SSW) 1,739 4.5 -12.4°
Reaches altitude 10° 12:30:14 10° 204° (SSW) 1,705 4.5 -12.3°
Maximum altitude 12:31:13 11° 190° (S) 1,656 4.5 -12.1°
Drops below altitude 10° 12:32:12 10° 175° (S) 1,704 4.7 -11.9°
Sets 12:36:06 0° 137° (SE) 2,584 6.2 -11.1°
